PBO Station Position Time Series. Reference Frame : NAM14
Format Version,1.1.0
4-character ID,HOLM
Station name,Holman
Begin Date, 2001-08-29
End Date, 2017-12-04
Release Date, 2021-02-19
Reference position, 70.7363035989 North Latitude, -117.7612376755 East Longitude, 0.44063 meters elevation,
Date, North (mm), East (mm), Vertical (mm), North Std. Deviation (mm), East Std. Deviation (mm),              Vertical Std. Deviation (mm), Quality,
2001-08-29,0.00, 0.00, 0.00, 2.27, 1.65, 9.03, repro,
2001-08-30,-3.08, -0.61, 10.25, 2.58, 1.90, 10.42, repro,
2001-08-31,-1.31, -0.25, 5.18, 2.85, 1.95, 11.33, repro,
2001-09-01,1.95, -2.15, 11.86, 2.54, 1.79, 10.21, repro,
2001-09-02,1.71, -1.68, 14.21, 2.44, 1.80, 10.04, repro,
2001-09-03,-2.07, 1.78, 0.25, 3.05, 2.15, 12.48, repro,
2001-09-04,-0.94, -1.49, 12.13, 3.06, 2.13, 11.80, repro,
2001-09-05,-1.95, -2.20, 14.60, 2.57, 1.89, 10.81, repro,
2001-09-06,-1.50, 0.56, 4.20, 2.53, 1.80, 9.64, repro,
2001-09-07,1.34, -1.35, 14.54, 2.26, 1.63, 8.82, repro,
2001-09-08,-0.76, -1.38, 4.28, 2.47, 1.86, 10.14, repro,
2001-09-09,-0.57, -3.64, 11.94, 2.43, 1.66, 9.94, repro,
2001-09-10,-0.30, -0.68, 7.44, 2.33, 1.67, 9.10, repro,
2001-09-11,0.82, -1.23, 15.46, 2.93, 2.30, 12.63, repro,
2001-09-12,-0.41, -0.86, 16.25, 3.32, 2.52, 13.17, repro,
2001-09-13,1.04, -1.58, 11.63, 2.42, 1.78, 9.64, repro,
2001-09-14,0.14, -2.01, 7.62, 2.26, 1.63, 8.81, repro,
2001-09-15,-1.01, -3.27, 7.55, 2.71, 2.03, 11.09, repro,
2001-09-16,0.24, -1.67, 11.21, 2.43, 1.77, 9.93, repro,
2001-09-17,0.11, -3.03, 15.34, 2.57, 1.79, 9.80, repro,
2001-09-18,0.31, -2.36, 1.14, 2.47, 1.90, 10.34, repro,
2001-09-19,1.22, -2.75, 10.98, 2.49, 1.73, 9.56, repro,
2001-09-20,-1.20, -0.94, 3.92, 2.53, 1.77, 9.73, repro,
2001-09-21,-0.99, 1.03, -2.60, 2.46, 1.75, 9.90, repro,
2001-09-22,1.07, -0.65, 6.22, 2.97, 2.06, 11.89, repro,
2001-09-23,1.31, -1.44, 10.51, 3.11, 2.42, 12.63, repro,
2001-09-24,-0.87, -3.05, 12.42, 2.31, 1.70, 9.10, repro,
2001-09-25,1.33, 0.08, 11.55, 2.92, 2.29, 12.16, repro,
2001-09-26,0.41, -2.59, 8.18, 2.69, 1.96, 10.41, repro,
2001-09-27,0.47, -0.76, 14.28, 2.89, 2.17, 12.39, repro,
2001-09-28,4.34, -2.36, 17.36, 4.71, 3.41, 17.97, repro,
2001-10-01,-1.20, -1.91, 10.12, 3.72, 2.78, 15.41, repro,
2001-10-02,0.74, 0.59, 17.35, 3.56, 2.63, 13.16, repro,
2001-10-03,3.27, -2.99, 13.50, 3.15, 2.23, 12.06, repro,
2001-10-04,-0.04, -2.33, 8.37, 2.67, 1.94, 10.79, repro,
2001-10-05,0.39, -1.91, 3.34, 2.41, 1.78, 9.32, repro,
2001-10-06,0.18, -2.35, 19.07, 2.74, 2.08, 11.17, repro,
2001-10-07,1.78, -3.64, 12.33, 2.71, 2.05, 11.07, repro,
2001-10-08,1.19, -2.59, 11.11, 3.42, 2.48, 15.16, repro,
2001-10-09,0.44, -2.36, 7.09, 3.15, 2.19, 12.65, repro,
2001-10-10,2.04, -2.89, 10.59, 3.94, 2.70, 16.27, repro,
2001-10-11,-5.27, -4.66, 12.27, 3.53, 2.64, 14.56, repro,
2001-10-12,1.79, -0.41, 8.93, 2.45, 1.80, 9.91, repro,
2001-10-13,1.18, -2.66, 5.29, 2.77, 1.99, 10.73, repro,
2001-10-14,0.76, -1.83, 6.22, 3.64, 2.72, 14.03, repro,
2001-10-15,1.70, -0.82, 11.21, 2.72, 2.10, 10.74, repro,
2001-10-16,2.08, -2.07, 13.12, 3.71, 2.92, 14.93, repro,
2001-10-17,2.47, -0.81, 15.64, 2.73, 1.91, 10.78, repro,
2001-10-18,3.54, -0.52, 11.15, 2.77, 2.04, 10.76, repro,
2001-10-19,4.13, -1.00, 24.76, 3.81, 2.86, 17.79, repro,
2001-10-20,2.63, -1.71, 12.49, 4.23, 3.23, 16.53, repro,
2001-10-21,3.44, -0.70, 16.70, 4.41, 3.09, 18.67, repro,
2001-10-22,0.38, -0.60, 9.58, 3.25, 2.55, 13.94, repro,
2001-10-23,0.50, -0.21, 1.04, 2.45, 1.83, 9.44, repro,
2001-10-25,0.10, -2.62, 10.55, 3.60, 2.65, 15.70, repro,
2001-10-26,-2.45, 0.42, 9.61, 4.05, 2.71, 13.43, repro,
2001-10-27,-0.35, -4.24, 3.70, 4.79, 3.72, 16.90, repro,
2001-10-28,5.78, 0.18, 1.24, 5.66, 4.00, 20.25, repro,
2001-10-29,-0.77, 1.20, -5.68, 3.46, 2.63, 13.63, repro,
2001-10-30,-0.34, 0.56, -0.69, 3.02, 2.18, 11.69, repro,
2001-10-31,2.43, 0.22, 16.85, 3.00, 2.17, 11.26, repro,
2001-11-01,2.86, -1.69, 13.82, 3.30, 2.41, 13.51, repro,
2001-11-02,-0.80, -0.89, 8.44, 2.54, 1.83, 10.28, repro,
2001-11-03,-2.79, 0.46, -1.13, 8.64, 5.67, 31.91, repro,
2001-11-05,-22.17, -4.79, 36.97, 57.03, 42.41, 121.01, repro,
2001-11-06,3.05, 0.55, 22.92, 4.26, 3.15, 17.88, repro,
2001-11-07,-1.62, 0.55, -11.69, 3.06, 2.36, 11.59, repro,
2001-11-08,1.13, -1.88, -8.67, 2.97, 2.28, 10.90, repro,
2001-11-09,-2.21, -3.44, 3.27, 4.11, 3.02, 16.00, repro,
2001-11-10,1.01, -1.33, 3.69, 3.29, 2.66, 14.86, repro,
2001-11-11,0.59, -0.83, 0.69, 3.33, 2.40, 11.48, repro,
2001-11-12,2.46, 0.62, 0.42, 3.33, 2.31, 12.38, repro,
2001-11-13,0.52, 1.66, 0.05, 3.60, 2.50, 14.26, repro,
2001-11-14,-0.21, -0.34, 10.99, 3.12, 2.17, 11.31, repro,
2001-11-15,-1.15, 0.84, 2.03, 2.87, 2.15, 10.93, repro,
2001-11-16,2.32, -2.80, 16.19, 3.85, 2.63, 14.28, repro,
2001-11-17,-0.35, -2.52, 5.43, 4.39, 3.20, 16.82, repro,
2001-11-18,0.73, -2.26, -2.86, 3.01, 2.15, 11.73, repro,
2001-11-19,-3.05, -3.93, 0.06, 4.53, 3.21, 17.35, repro,
2001-11-20,-0.40, -1.59, 0.73, 2.71, 2.04, 10.28, repro,
2001-11-21,-0.93, -0.89, 6.48, 2.88, 1.92, 10.62, repro,
2001-11-22,-0.70, -1.26, 12.75, 4.05, 2.61, 15.80, repro,
2001-11-23,1.24, -1.86, -9.11, 5.77, 4.33, 22.33, repro,
2001-11-24,-1.47, -0.28, -1.99, 4.45, 3.39, 17.23, repro,
2001-11-25,-0.30, -1.60, -9.09, 2.92, 2.18, 11.41, repro,
2001-11-26,0.64, -1.41, -14.03, 2.65, 1.87, 9.69, repro,
2001-11-27,1.41, -1.22, -9.19, 2.50, 1.85, 9.93, repro,
2001-11-28,1.17, -0.24, -4.76, 2.42, 1.77, 9.39, repro,
2001-11-29,2.08, -2.09, -1.42, 2.62, 1.90, 9.61, repro,
2001-11-30,1.58, -2.87, 0.20, 2.58, 1.89, 9.77, repro,
2001-12-01,1.15, -1.88, -4.82, 3.49, 3.00, 13.30, repro,
2001-12-02,1.17, -2.20, 4.38, 3.48, 2.44, 12.27, repro,
2001-12-03,0.65, -2.15, 0.88, 3.21, 2.41, 12.66, repro,
2001-12-04,-4.41, -19.91, 22.48, 27.27, 23.19, 57.61, repro,
2001-12-05,5.23, -3.61, 0.88, 3.16, 2.41, 11.48, repro,
2001-12-06,0.10, -0.48, -9.41, 3.35, 2.29, 11.55, repro,
2001-12-07,1.00, -3.34, -15.50, 2.95, 2.13, 11.24, repro,
2001-12-08,0.61, -1.45, -3.43, 2.70, 1.93, 10.35, repro,
2001-12-09,2.49, -1.77, 4.14, 2.45, 1.76, 9.18, repro,
2001-12-10,2.30, -2.01, 5.57, 2.97, 2.18, 11.13, repro,
2001-12-11,0.75, -0.50, -8.75, 2.78, 2.01, 11.05, repro,
2001-12-12,-0.87, 0.66, -3.07, 3.20, 2.26, 13.68, repro,
2001-12-13,1.01, -0.78, -7.61, 2.66, 1.84, 9.85, repro,
2001-12-14,-0.33, -2.37, -7.37, 2.70, 1.90, 10.71, repro,
2001-12-15,0.14, -1.78, -6.37, 2.74, 1.96, 10.64, repro,
2001-12-16,1.67, -4.49, -5.55, 4.58, 3.23, 16.86, repro,
2001-12-17,-2.58, -3.02, -4.16, 3.26, 2.30, 13.32, repro,
2001-12-18,-2.58, -4.66, -6.30, 3.31, 2.41, 12.21, repro,
2001-12-19,-4.74, -7.36, -4.83, 2.84, 2.15, 11.21, repro,
2001-12-20,-2.42, -5.37, -3.98, 2.72, 1.97, 10.59, repro,
2001-12-22,-6.71, -2.65, 3.81, 3.83, 2.48, 13.15, repro,
2001-12-23,-4.69, -3.92, -1.55, 2.77, 1.93, 10.76, repro,
2001-12-24,-7.34, -2.19, -8.67, 4.11, 2.77, 17.12, repro,
2001-12-25,-7.66, -3.68, 3.45, 2.95, 2.15, 12.14, repro,
2001-12-26,-40.59, -56.05, 143.30, 80.67, 77.79, 209.54, repro,
2001-12-27,-5.66, 1.06, -6.24, 3.22, 2.31, 12.71, repro,
2001-12-28,0.05, 7.57, 28.91, 11.19, 20.92, 56.82, repro,
2001-12-29,-5.38, -0.45, 5.45, 3.29, 2.73, 13.83, repro,
2001-12-30,-2.08, -0.44, -4.68, 3.41, 2.50, 12.45, repro,
2001-12-31,-2.47, -1.28, 1.60, 4.31, 3.10, 15.97, repro,
2002-01-01,-2.67, -3.33, 3.19, 5.63, 4.06, 20.83, repro,
2002-01-26,-4.08, -1.07, -3.92, 2.89, 2.24, 11.25, repro,
2002-01-27,-3.03, -2.10, -2.49, 3.11, 2.43, 12.74, repro,
2002-01-28,-3.00, -0.90, -2.53, 3.60, 2.58, 14.41, repro,
2002-01-29,-4.67, 0.24, -13.05, 3.18, 2.37, 12.22, repro,
2002-01-30,-3.78, -1.33, -10.46, 3.70, 2.46, 13.48, repro,
2002-01-31,-5.81, -0.41, -16.41, 3.22, 2.28, 11.49, repro,
2002-02-01,-3.37, 0.37, -5.58, 3.76, 2.83, 13.66, repro,
2002-02-04,6.61, -43.19, -59.16, 55.53, 98.83, 110.98, repro,
2002-02-05,-4.94, -3.51, -0.45, 4.19, 2.88, 16.29, repro,
2002-02-06,-5.89, -1.94, 3.32, 5.06, 3.42, 19.26, repro,
2002-02-07,-5.02, -2.46, -0.32, 4.10, 3.13, 15.59, repro,
2002-02-08,-5.85, -4.10, -11.69, 3.94, 2.61, 15.04, repro,
2002-02-09,-6.66, -2.17, -13.27, 4.04, 3.16, 14.17, repro,
2002-02-10,-5.11, -4.41, -10.54, 3.82, 2.84, 12.87, repro,
2002-02-11,-6.14, -2.67, -16.01, 4.33, 3.16, 16.26, repro,
2002-02-12,-5.69, -2.60, 3.97, 2.86, 2.10, 11.63, repro,
2002-02-13,-4.79, -1.62, -1.54, 4.00, 2.72, 15.95, repro,
2002-02-14,-6.37, -4.84, -4.42, 3.00, 2.15, 11.68, repro,
2002-02-15,-4.33, -4.51, 7.91, 3.25, 2.22, 11.96, repro,
2002-02-16,-3.99, -3.05, 9.35, 3.40, 2.33, 12.96, repro,
2002-02-17,-0.73, -2.54, 0.15, 4.19, 3.17, 15.80, repro,
2002-02-18,-8.39, -2.40, -4.65, 5.89, 4.34, 19.17, repro,
2002-02-19,-6.23, -4.22, 5.08, 2.98, 2.26, 11.25, repro,
2002-02-20,-6.20, -3.27, 2.04, 3.64, 2.75, 13.75, repro,
2002-02-21,-1.25, -2.89, -2.87, 4.00, 3.17, 15.22, repro,
2002-02-22,-2.27, -1.97, -19.37, 4.86, 4.06, 18.29, repro,
2002-02-23,-4.12, -2.95, -10.39, 3.29, 2.43, 13.18, repro,
2002-02-24,-5.33, -4.11, -7.93, 3.80, 2.87, 14.09, repro,
2002-02-25,-7.91, -3.57, -25.64, 3.38, 2.39, 13.24, repro,
2002-02-26,-0.64, -0.57, -18.12, 4.06, 3.55, 17.40, repro,
2002-02-27,-3.97, -2.43, -8.85, 3.16, 2.35, 13.20, repro,
2002-02-28,-1.85, 0.51, -9.52, 4.00, 3.31, 15.14, repro,
2002-03-01,-2.67, -1.96, -5.73, 2.89, 2.12, 11.17, repro,
2002-03-02,-4.59, -3.79, 7.24, 2.80, 2.15, 11.08, repro,
2002-03-03,-1.22, -3.38, -18.63, 6.52, 4.59, 25.34, repro,
2002-03-04,-2.80, -3.26, -1.80, 2.95, 2.12, 12.06, repro,
2002-03-05,-2.59, -0.62, -20.11, 6.17, 3.98, 24.00, repro,
2002-03-06,-5.42, -2.82, 4.48, 4.70, 3.32, 17.63, repro,
2002-03-07,-3.23, -2.94, -1.69, 3.13, 2.27, 13.06, repro,
2002-03-08,-4.05, -1.54, -7.22, 2.87, 2.05, 11.21, repro,
2002-03-09,-6.78, -2.22, -3.91, 3.05, 2.14, 12.52, repro,
2002-03-10,-6.64, -2.83, -2.37, 3.25, 2.17, 12.01, repro,
2002-03-11,-5.91, -2.02, -6.73, 3.03, 2.27, 12.33, repro,
2002-03-12,-2.79, -2.25, -0.17, 3.25, 2.22, 13.67, repro,
2002-03-13,-3.17, -4.51, -7.91, 2.68, 1.94, 11.02, repro,
2002-03-14,-3.18, -1.50, -10.35, 2.77, 1.96, 10.51, repro,
2002-03-15,-6.42, -1.19, -11.70, 2.84, 1.90, 10.76, repro,
2002-03-16,-6.64, -1.21, -19.84, 2.68, 1.91, 10.67, repro,
2002-03-17,-8.49, -0.03, -18.09, 2.82, 1.98, 11.33, repro,
2002-03-18,-6.47, -0.70, -12.20, 3.85, 2.61, 13.85, repro,
2002-03-19,-5.15, -2.36, -20.49, 2.85, 2.15, 11.74, repro,
2002-03-20,-6.79, -1.98, -4.40, 3.43, 2.58, 13.10, repro,
2002-03-21,-6.74, -2.18, -18.35, 2.50, 1.79, 10.29, repro,
2002-03-22,-4.40, -5.86, -13.44, 2.95, 2.37, 12.82, repro,
2002-03-23,-2.78, -4.50, -20.74, 3.25, 2.09, 12.05, repro,
2002-03-24,0.08, -5.37, -20.94, 3.25, 2.31, 12.75, repro,
2002-03-25,-4.51, -4.59, -5.67, 2.53, 1.79, 10.05, repro,
2002-03-26,-5.66, -5.00, -5.60, 3.08, 2.25, 13.57, repro,
2002-03-27,-2.90, -5.23, -5.31, 2.39, 1.75, 9.87, repro,
2002-03-28,-5.67, -5.72, -10.61, 2.47, 1.81, 10.44, repro,
2002-03-29,-5.97, -4.46, -9.48, 2.56, 1.84, 10.35, repro,
2002-03-30,-3.09, -4.08, -3.47, 3.68, 2.77, 14.47, repro,
2002-03-31,-0.36, -3.75, -15.23, 3.31, 2.52, 14.40, repro,
2002-04-01,-1.86, -4.67, -14.82, 3.72, 2.91, 16.01, repro,
2002-04-02,-1.22, -4.37, -17.13, 2.90, 2.28, 11.73, repro,
2002-04-03,-0.61, -5.33, -8.68, 2.83, 2.16, 12.40, repro,
2002-04-04,-0.65, -5.70, -10.01, 2.58, 1.81, 10.67, repro,
2002-04-05,-0.17, -4.57, -12.60, 2.54, 1.81, 9.86, repro,
2002-04-06,-1.48, -4.71, -4.11, 2.83, 1.96, 11.55, repro,
2002-04-07,1.36, -4.80, 2.36, 2.49, 1.76, 10.15, repro,
2002-04-08,-1.37, -4.05, -3.86, 2.42, 1.73, 10.43, repro,
2002-04-09,-0.99, -4.45, -0.21, 2.41, 1.66, 10.77, repro,
2002-04-10,-1.93, -3.92, 0.92, 2.69, 1.87, 10.71, repro,
2002-04-11,-2.81, -3.26, -0.58, 2.42, 1.68, 10.02, repro,
2002-04-12,-5.14, -2.45, 0.85, 2.32, 1.62, 9.45, repro,
2002-04-13,-3.94, -2.61, 4.22, 2.58, 1.85, 11.23, repro,
2002-04-14,-4.60, -2.86, 10.56, 2.30, 1.62, 9.30, repro,
2002-04-15,-5.85, -1.92, 2.58, 2.54, 1.81, 10.20, repro,
2002-04-16,-6.69, -3.03, 0.01, 2.48, 1.73, 10.25, repro,
2002-04-17,-7.25, -2.57, -3.67, 3.07, 2.15, 12.21, repro,
2002-04-18,-6.92, -1.86, -0.14, 2.58, 1.78, 10.81, repro,
2002-04-19,-8.07, -3.50, -4.89, 3.07, 2.19, 11.09, repro,
2002-04-20,-7.86, -6.58, 3.34, 3.00, 2.27, 13.13, repro,
2002-04-21,-7.89, -4.23, -2.79, 2.33, 1.71, 9.76, repro,
2002-04-22,-5.28, -3.61, -4.72, 2.43, 1.80, 10.55, repro,
2002-04-23,-4.89, -2.24, -5.87, 2.59, 1.94, 10.83, repro,
2002-04-24,-4.94, -2.54, -10.61, 2.32, 1.70, 9.79, repro,
2002-04-25,-5.27, -1.76, -2.09, 2.23, 1.61, 9.18, repro,
2002-04-26,-3.42, -0.54, 1.65, 2.28, 1.66, 9.52, repro,
2002-04-27,-4.55, -0.40, -0.89, 2.89, 1.97, 11.78, repro,
2002-04-28,-2.43, -2.01, -2.79, 2.51, 1.80, 10.86, repro,
2002-04-29,-0.26, -1.44, -1.26, 2.53, 1.86, 11.26, repro,
2002-04-30,-2.30, 0.76, -3.07, 2.43, 1.72, 10.03, repro,
2002-05-01,-1.71, -0.38, -0.47, 2.32, 1.63, 9.62, repro,
2002-05-02,-1.31, -0.35, -3.54, 2.23, 1.56, 9.02, repro,
2002-05-03,-1.65, 0.03, -3.16, 2.33, 1.61, 10.00, repro,
2002-05-04,-2.39, -0.18, -6.75, 2.33, 1.63, 9.62, repro,
2002-05-05,-2.17, 0.39, -7.18, 2.21, 1.58, 9.42, repro,
2002-05-06,-1.41, 0.66, -7.05, 2.43, 1.72, 10.06, repro,
2002-05-07,-1.76, 0.87, -2.19, 2.35, 1.67, 9.70, repro,
2002-05-08,0.08, 1.01, 0.65, 2.26, 1.66, 9.62, repro,
2002-05-09,-0.73, 0.10, 0.43, 2.27, 1.66, 9.87, repro,
2002-05-10,-0.24, -0.02, 1.52, 2.31, 1.66, 9.53, repro,
2002-05-11,-0.98, -0.07, -5.58, 2.64, 1.90, 11.31, repro,
2002-05-12,-1.44, -0.47, -5.45, 2.19, 1.57, 9.30, repro,
2002-05-13,-1.88, -0.00, -8.56, 2.23, 1.60, 9.37, repro,
2002-05-14,-1.26, 1.31, 2.14, 2.72, 1.99, 11.45, repro,
2002-05-15,-1.81, 0.96, -4.30, 2.25, 1.63, 9.60, repro,
2002-05-16,-2.35, 0.10, -7.11, 2.29, 1.69, 9.54, repro,
2002-05-17,-1.82, 0.14, -7.68, 2.20, 1.55, 9.21, repro,
2002-05-18,-1.05, -0.41, -6.90, 2.33, 1.71, 9.91, repro,
2002-05-19,-0.41, 1.21, -5.12, 2.26, 1.62, 9.41, repro,
2002-05-20,-0.15, -0.17, -6.35, 2.22, 1.58, 9.46, repro,
2002-05-21,-0.02, 1.81, -3.73, 2.20, 1.61, 9.27, repro,
2002-05-22,-0.42, -1.78, -5.10, 2.43, 1.63, 10.25, repro,
2002-05-23,-0.98, -0.92, -4.53, 2.50, 1.74, 10.38, repro,
2002-05-24,-0.86, 1.05, -7.09, 2.14, 1.54, 9.08, repro,
2002-05-25,-0.79, 0.57, -5.89, 2.26, 1.63, 9.68, repro,
2002-05-26,2.60, -0.64, -0.10, 2.21, 1.59, 9.36, repro,
2002-05-27,2.81, -2.15, -2.67, 2.49, 1.76, 11.08, repro,
2002-05-28,1.50, 0.05, -5.22, 2.31, 1.64, 9.60, repro,
2002-05-29,0.80, 0.01, 1.45, 2.18, 1.56, 9.02, repro,
2002-05-30,0.23, 0.62, -2.43, 2.20, 1.58, 9.50, repro,
2002-05-31,-1.61, 0.17, 2.98, 2.20, 1.56, 9.29, repro,
2002-06-01,0.17, -0.61, 2.87, 2.22, 1.57, 9.44, repro,
2002-06-02,1.37, 0.71, 1.39, 2.64, 1.88, 11.03, repro,
2002-06-03,-0.26, -0.40, -3.14, 2.33, 1.72, 9.75, repro,
2002-06-04,-0.21, -0.43, 1.54, 2.36, 1.66, 9.70, repro,
2002-06-05,1.70, -0.62, 6.59, 2.25, 1.60, 9.58, repro,
2002-06-06,-0.44, -0.17, 3.50, 2.30, 1.64, 9.46, repro,
2002-06-07,0.24, -0.82, -2.45, 2.31, 1.63, 9.59, repro,
2002-06-08,1.03, -0.48, -3.21, 2.29, 1.62, 9.61, repro,
2002-06-09,1.10, 0.55, -0.07, 2.30, 1.64, 9.92, repro,
2002-06-10,-3.61, 1.57, -3.53, 2.41, 1.68, 10.19, repro,
2002-06-11,-0.92, 0.05, 4.01, 2.53, 1.76, 11.21, repro,
2002-06-12,-1.27, -0.01, 4.92, 2.37, 1.66, 10.26, repro,
2002-06-13,1.51, 0.58, -4.66, 2.28, 1.65, 9.74, repro,
2002-06-14,0.66, 0.52, -10.13, 2.32, 1.65, 10.05, repro,
2002-06-15,-0.63, 0.59, -7.37, 2.21, 1.59, 9.31, repro,
2002-06-16,0.29, -0.44, -3.47, 2.28, 1.60, 9.66, repro,
2002-06-17,-1.86, 1.51, 0.40, 2.19, 1.57, 9.27, repro,
2002-06-18,-0.06, -0.13, 2.54, 2.39, 1.69, 10.02, repro,
2002-06-19,-0.46, -0.28, 4.84, 2.58, 1.80, 10.60, repro,
2002-06-20,-0.40, 0.50, 7.65, 2.29, 1.63, 9.56, repro,
2002-06-21,-1.31, 1.06, 6.61, 2.37, 1.72, 9.78, repro,
2002-06-22,0.07, -0.34, 9.49, 2.38, 1.70, 10.07, repro,
2002-06-23,-0.87, -0.82, 4.56, 2.18, 1.57, 9.22, repro,
2002-06-24,-0.49, -0.19, 9.83, 2.44, 1.72, 10.27, repro,
2002-06-25,0.05, -0.17, 11.71, 2.47, 1.71, 9.85, repro,
2002-06-26,-1.27, 0.49, 17.72, 2.39, 1.75, 10.01, repro,
2002-06-27,0.26, -1.33, 20.17, 2.26, 1.61, 9.56, repro,
2002-06-28,1.23, -0.71, 15.72, 2.33, 1.68, 9.58, repro,
2002-06-29,-0.82, 0.05, 12.38, 2.29, 1.60, 9.44, repro,
2002-06-30,-0.92, -1.30, 10.94, 2.41, 1.80, 10.41, repro,
2002-07-01,0.57, 0.06, 21.82, 2.36, 1.73, 9.51, repro,
2002-07-02,-0.03, -0.15, 20.01, 2.21, 1.57, 9.16, repro,
2002-07-03,0.22, -0.65, 16.31, 2.20, 1.57, 9.33, repro,
2002-07-04,-0.61, -1.13, 13.86, 2.22, 1.58, 9.48, repro,
2002-07-05,-0.94, 0.85, 6.48, 2.28, 1.64, 9.67, repro,
2002-07-06,-0.95, 2.06, 6.07, 2.31, 1.64, 9.70, repro,
2002-07-07,-1.20, 0.65, 14.42, 2.25, 1.62, 9.37, repro,
2002-07-08,-0.32, 0.31, 14.53, 2.22, 1.59, 9.30, repro,
2002-07-09,-1.20, -1.09, 3.05, 2.44, 1.80, 10.29, repro,
2002-07-10,-1.56, 0.04, 1.46, 2.30, 1.62, 9.37, repro,
2002-07-11,0.07, -0.58, 0.89, 2.17, 1.56, 9.04, repro,
2002-07-12,-0.57, -0.12, 6.49, 2.39, 1.64, 9.81, repro,
2002-07-14,-0.53, 0.61, 8.36, 2.20, 1.55, 9.17, repro,
2002-07-15,-0.48, -1.08, 7.76, 2.24, 1.61, 9.30, repro,
2002-07-16,-1.02, -0.80, 8.56, 2.26, 1.59, 9.35, repro,
2002-07-17,-1.84, 0.20, 2.58, 2.29, 1.62, 9.60, repro,
2002-07-18,-2.37, -0.69, 7.10, 2.28, 1.64, 9.52, repro,
2002-07-19,2.07, 1.35, 12.54, 2.28, 1.66, 9.28, repro,
2002-07-20,-0.69, -1.30, 13.55, 2.46, 1.74, 9.95, repro,
2002-07-21,-1.89, -0.80, 4.31, 2.73, 2.00, 11.38, repro,
2002-07-22,0.90, -0.58, 7.78, 2.42, 1.72, 10.08, repro,
2002-07-23,-1.07, -0.42, 10.23, 2.36, 1.66, 9.88, repro,
2002-07-24,-1.99, 0.79, 18.18, 2.23, 1.61, 9.50, repro,
2002-07-25,-0.22, 0.19, 11.76, 2.31, 1.64, 9.71, repro,
2002-07-26,-1.51, -2.34, 13.25, 2.66, 1.88, 11.43, repro,
2002-07-28,0.29, 0.02, 12.59, 2.25, 1.62, 9.39, repro,
2002-07-29,-0.14, -1.45, 4.72, 2.23, 1.60, 9.22, repro,
2002-07-30,1.53, -0.63, 2.51, 2.33, 1.68, 10.02, repro,
2002-07-31,-0.63, -0.53, -4.26, 2.22, 1.60, 9.34, repro,
2002-08-01,0.44, -1.01, -1.68, 2.44, 1.66, 9.81, repro,
2002-08-02,0.23, 1.01, 1.78, 2.56, 1.74, 10.91, repro,
2002-08-03,-0.32, -0.13, 4.19, 2.47, 1.76, 10.15, repro,
2002-08-04,-1.36, -0.21, 4.94, 2.27, 1.66, 9.48, repro,
2002-08-05,-0.45, -0.98, 10.41, 2.20, 1.56, 9.12, repro,
2002-08-06,-1.67, -1.35, -1.43, 2.23, 1.59, 9.11, repro,
2002-08-07,0.22, -1.66, 8.21, 2.28, 1.63, 9.54, repro,
2002-08-08,0.73, -0.17, 4.41, 2.33, 1.67, 9.82, repro,
2002-08-09,-6.67, -1.03, -0.30, 13.92, 11.03, 52.68, repro,
2002-08-10,0.14, -0.05, -4.73, 2.53, 1.84, 10.56, repro,
2002-08-11,1.33, -0.37, 3.11, 3.46, 2.40, 14.59, repro,
2002-08-12,0.28, -0.20, 5.71, 2.76, 1.83, 11.30, repro,
2002-08-13,2.41, 1.08, -0.29, 2.72, 1.94, 11.81, repro,
2002-08-14,0.91, 0.09, 1.18, 2.97, 2.04, 12.54, repro,
2002-08-15,1.72, -0.84, 0.72, 3.35, 2.32, 13.43, repro,
2002-08-16,2.45, -0.39, 0.90, 2.62, 1.87, 11.19, repro,
2002-08-17,0.58, -1.79, 0.36, 2.76, 1.99, 12.10, repro,
2002-08-18,2.95, -2.46, 4.44, 2.72, 1.91, 11.85, repro,
2002-08-20,3.12, -1.98, 3.34, 2.57, 1.87, 10.96, repro,
2002-08-21,1.97, 0.36, 2.83, 2.52, 1.80, 10.46, repro,
2002-08-22,1.44, -0.49, 5.15, 2.49, 1.68, 9.94, repro,
2002-08-23,2.26, -1.36, 8.54, 2.60, 1.94, 10.79, repro,
2002-08-24,1.94, -1.28, 8.46, 2.78, 1.86, 11.18, repro,
2002-08-25,4.52, -0.40, 4.24, 2.62, 1.77, 10.68, repro,
2002-08-28,3.04, 5.38, 9.82, 8.17, 5.32, 28.77, repro,
2002-08-29,3.65, 0.17, 6.79, 3.02, 2.03, 11.53, repro,
2002-08-30,-0.18, -2.04, 9.98, 2.71, 1.99, 11.10, repro,
2002-08-31,1.09, -0.48, -2.59, 2.77, 1.88, 11.82, repro,
2002-09-01,2.70, -0.99, 8.70, 2.67, 1.83, 10.71, repro,
2002-09-02,2.17, -1.37, 4.74, 2.41, 1.73, 10.02, repro,
2002-09-03,3.32, -1.90, 3.10, 2.59, 1.82, 10.50, repro,
2002-09-04,-1.36, -1.18, -1.55, 3.32, 2.48, 13.43, repro,
2002-09-05,0.12, -1.14, -5.14, 2.87, 2.10, 12.74, repro,
2002-09-06,1.57, -0.12, 10.94, 2.82, 1.92, 11.59, repro,
2002-09-07,0.01, -0.02, 3.26, 3.08, 2.29, 13.41, repro,
2002-09-08,1.53, 0.54, 15.29, 2.54, 1.93, 11.16, repro,
2002-09-09,-0.42, 0.20, -0.17, 3.50, 2.31, 13.71, repro,
2002-09-10,1.71, 1.70, 17.15, 3.64, 2.63, 15.30, repro,
2003-01-01,-5.51, -5.28, 3.38, 6.40, 4.96, 27.56, repro,
2003-01-02,-8.09, -5.69, -0.55, 3.39, 2.47, 13.97, repro,
2003-01-03,-9.86, -4.45, -0.81, 3.77, 2.55, 15.11, repro,
2003-01-04,-6.99, -4.75, 6.42, 3.02, 2.09, 12.24, repro,
2003-01-05,-2.40, -5.01, 8.87, 3.41, 2.32, 15.45, repro,
2003-01-06,-5.10, -2.79, 3.48, 2.94, 2.13, 12.06, repro,
2003-01-07,-6.09, -3.41, 13.38, 3.18, 2.17, 13.55, repro,
2003-01-08,-5.98, -3.99, -3.87, 2.53, 1.84, 10.51, repro,
2003-01-09,-4.57, -2.38, -13.45, 2.91, 2.08, 12.13, repro,
2003-01-10,-2.46, -3.26, -19.51, 3.57, 2.38, 14.86, repro,
2003-01-11,-6.41, -3.68, -13.47, 3.03, 2.14, 12.62, repro,
2003-01-12,-6.95, -5.73, -19.14, 3.02, 2.20, 12.85, repro,
2003-01-13,-6.83, -3.66, -1.75, 3.97, 3.08, 14.06, repro,
2003-01-14,-7.32, -2.30, -16.00, 4.91, 4.76, 17.90, repro,
2003-01-15,-5.43, -2.54, -4.74, 3.74, 2.86, 14.87, repro,
2003-01-16,-4.33, -2.26, -7.90, 3.15, 2.20, 13.03, repro,
2003-01-17,-5.25, -1.59, -9.12, 3.80, 3.08, 15.94, repro,
2003-01-18,-7.24, -5.66, -8.07, 4.11, 2.77, 16.15, repro,
2003-01-19,-2.82, -6.86, 0.85, 5.34, 4.10, 23.19, repro,
2003-01-20,-3.10, -1.13, -6.27, 3.95, 2.92, 15.32, repro,
2003-01-21,-8.44, -0.25, -20.29, 4.82, 3.72, 21.62, repro,
2003-01-22,-6.44, 0.74, -11.85, 4.19, 3.49, 17.12, repro,
2003-01-23,-7.80, 2.37, -7.75, 3.73, 2.77, 15.40, repro,
2003-01-24,-7.86, -0.32, -4.99, 3.75, 2.44, 14.26, repro,
2003-01-25,0.56, -4.57, 8.32, 5.33, 3.84, 21.04, repro,
2003-01-26,-2.01, -3.65, 5.04, 4.08, 2.71, 15.82, repro,
2003-01-27,-6.42, -4.79, -15.23, 3.05, 2.20, 12.72, repro,
2003-01-28,-4.77, -3.67, 6.57, 4.21, 2.82, 15.48, repro,
2003-01-29,-3.75, -3.45, 6.66, 4.19, 4.19, 16.86, repro,
2003-01-30,-4.85, -2.47, 3.96, 3.45, 2.33, 13.84, repro,
2003-01-31,-4.50, -2.96, 10.87, 4.07, 2.98, 17.70, repro,
2003-02-01,-9.23, -4.07, 19.49, 8.24, 10.09, 57.15, repro,
2003-02-02,-3.65, -2.91, -3.66, 4.14, 2.89, 17.71, repro,
2003-02-03,-8.39, -2.42, 11.49, 3.25, 2.24, 12.73, repro,
2003-02-04,-12.00, -0.66, 5.39, 7.97, 8.53, 24.16, repro,
2003-02-05,-5.29, -0.70, 1.77, 2.95, 2.15, 12.16, repro,
2003-02-06,-6.52, -1.16, -0.33, 3.92, 2.91, 16.15, repro,
2003-02-07,-7.53, -4.04, -8.68, 3.19, 2.19, 13.91, repro,
2003-02-08,-5.87, -3.60, -12.86, 4.14, 2.87, 15.64, repro,
2003-02-09,-4.71, -1.67, 8.41, 3.46, 2.39, 14.55, repro,
2003-02-10,-5.15, 0.20, 0.69, 5.25, 4.59, 19.69, repro,
2003-02-11,-4.22, -4.12, -4.77, 3.16, 2.36, 13.47, repro,
2003-02-12,-7.48, -2.39, -10.93, 3.73, 2.47, 14.85, repro,
2003-02-13,-6.74, -1.97, -17.45, 2.81, 2.09, 11.55, repro,
2003-02-14,-9.58, -3.44, -16.46, 3.65, 2.70, 14.47, repro,
2003-02-15,-5.09, 0.12, -6.59, 4.06, 3.13, 14.51, repro,
2003-02-16,-6.00, -1.56, -10.98, 3.68, 2.57, 15.70, repro,
2003-02-17,-3.01, -6.09, -5.54, 5.01, 3.33, 22.11, repro,
2003-02-18,-7.15, -4.73, -9.50, 3.49, 2.64, 15.02, repro,
2003-02-19,-6.69, -5.04, -4.33, 3.39, 2.35, 13.90, repro,
2003-02-20,-1.97, -7.01, -15.21, 4.17, 3.44, 15.32, repro,
2003-02-21,-5.08, -6.76, -4.47, 2.93, 2.16, 11.97, repro,
2003-02-22,-6.21, -5.72, -7.86, 3.69, 2.96, 14.31, repro,
2003-02-23,-8.57, -5.90, -21.21, 2.92, 2.07, 11.99, repro,
2003-02-24,-7.59, -5.37, -9.75, 2.74, 2.06, 11.66, repro,
2003-02-25,-5.26, -6.36, -5.07, 2.58, 1.87, 11.16, repro,
2003-02-26,-1.95, -7.86, -0.03, 3.77, 2.86, 14.60, repro,
2003-02-27,-7.59, -6.07, -12.55, 2.84, 1.93, 11.76, repro,
2003-02-28,-11.35, -6.66, -28.45, 3.25, 2.31, 13.29, repro,
2003-03-01,-10.07, -10.82, -15.36, 5.58, 4.02, 21.30, repro,
2003-03-02,-7.02, -5.18, -10.74, 3.04, 2.03, 12.03, repro,
2003-03-03,-5.79, -5.94, 2.46, 3.09, 2.24, 13.46, repro,
2003-03-04,-6.73, -8.69, -12.14, 3.00, 2.36, 12.62, repro,
2003-03-05,-5.61, -6.05, 1.95, 3.12, 2.23, 13.96, repro,
2003-03-06,-9.16, -5.15, -6.82, 3.40, 2.53, 14.88, repro,
2003-03-07,-10.43, -5.19, -1.78, 3.15, 2.29, 12.84, repro,
2003-03-08,-8.94, -5.04, -4.77, 4.51, 3.64, 18.27, repro,
2003-03-09,-10.28, -5.23, -7.68, 3.27, 2.64, 13.83, repro,
2003-03-10,-8.47, -6.05, -8.76, 3.38, 2.45, 13.93, repro,
2003-03-11,-9.27, -6.58, -1.88, 3.11, 2.17, 12.61, repro,